STARLINK-2746 (48676 NORAD) Tracking and Keplerian Element Data

This shows tracking and keplerian element data for the satellite.

Feedback or suggestion? Click here.




ElementValue
Catalog48676
NameSTARLINK-2746
Epoch Orbit181
Epoch Day170.58334491
Epoch Year2021
RAAN306.2608
Inclination53.0481
Eccentricity0.0001354
Argument of Perigee52.7891
Mean Anonmoly72.2293
Mean Motion15.73211301
Decay Rate-6.475E-05
L11 48676U 21044AQ 21170.58334491 -.00006475 00000-0 -41717-4 0 9998
L22 48676 53.0481 306.2608 0001354 52.7891 72.2293 15.73211301 1813

Live tracking and technical data element details for STARLINK-2746 (NORAD 48676). STARLINK-2746 can be tracked NOW for your location showing map with azimuth and elevation plus other details from your city location.

Track the satellite on the map from your city or location and see movement details for azimuth, elevation, latitude, longitude, range, height, and movement on the map or in text.







IsCatalogInMostPopularTable: catalog: 48676, numindb: 5
Update: records affected: 1



GetName: 48676 STARLINK-2746

Hit Count: updated at: Mon, 21 Jun 2021 02:55:40 GMT